2023/01/14 00:00:00,17.7, 3.7
2023/01/14 00:10:00,17.7, 3.7
2023/01/14 00:20:00,17.5, 3.5
2023/01/14 00:30:00,17.2, 3.3
2023/01/14 00:40:00,16.9, 3.4
2023/01/14 00:50:00,16.8, 3.4
2023/01/14 01:00:00,16.8, 3.5
2023/01/14 01:10:00,16.9, 3.6
2023/01/14 01:20:00,17.0, 3.2
2023/01/14 01:30:00,17.0, 3.6
2023/01/14 01:40:00,17.2, 3.5
2023/01/14 01:50:00,17.7, 3.2
2023/01/14 02:00:00,18.5, 3.5
2023/01/14 02:10:00,18.2, 3.4
2023/01/14 02:20:00,17.8, 3.5
2023/01/14 02:30:00,17.8, 3.2
2023/01/14 02:40:00,17.5, 3.2
2023/01/14 02:50:00,17.5, 3.1
2023/01/14 03:00:00,17.5, 3.1
2023/01/14 03:10:00,17.5, 3.0
2023/01/14 03:20:00,17.3, 3.2
2023/01/14 03:30:00,16.7, 3.2
2023/01/14 03:40:00,16.3, 2.9
2023/01/14 03:50:00,16.1, 3.2
2023/01/14 04:00:00,16.0, 3.5
2023/01/14 04:10:00,16.1, 3.5
2023/01/14 04:20:00,16.5, 3.7
2023/01/14 04:30:00,16.7, 3.6
2023/01/14 04:40:00,16.8, 3.4
2023/01/14 04:50:00,16.9, 3.4
2023/01/14 05:00:00,16.8, 3.4
2023/01/14 05:10:00,16.8, 3.5
2023/01/14 05:20:00,16.8, 3.3
2023/01/14 05:30:00,16.6, 3.4
2023/01/14 05:40:00,16.4, 3.6
2023/01/14 05:50:00,16.4, 3.7
2023/01/14 06:00:00,16.2, 3.5
2023/01/14 06:10:00,16.2, 3.5
2023/01/14 06:20:00,16.1, 3.7
2023/01/14 06:30:00,16.0, 3.8
2023/01/14 06:40:00,15.9, 3.3
2023/01/14 06:50:00,15.9, 3.5
2023/01/14 07:00:00,16.1, 3.7
2023/01/14 07:10:00,16.1, 3.5
2023/01/14 07:20:00,16.0, 3.7
2023/01/14 07:30:00,15.9, 3.6
2023/01/14 07:40:00,15.9, 3.5
2023/01/14 07:50:00,16.8, 3.6
2023/01/14 08:00:00,17.5, 3.7
2023/01/14 08:10:00,17.1, 3.9
2023/01/14 08:20:00,16.9, 3.7
2023/01/14 08:30:00,16.1, 3.9
2023/01/14 08:40:00,16.3, 3.9
2023/01/14 08:50:00,16.4, 3.7
2023/01/14 09:00:00,16.3, 3.9
2023/01/14 09:10:00,16.2, 3.7
2023/01/14 09:20:00,16.3, 3.5
2023/01/14 09:30:00,16.3, 3.5
2023/01/14 09:40:00,16.4, 3.6
2023/01/14 09:50:00,16.4, 3.6
2023/01/14 10:00:00,16.6, 3.7
2023/01/14 10:10:00,16.5, 3.5
2023/01/14 10:20:00,16.4, 3.7
2023/01/14 10:30:00,16.4, 3.7
2023/01/14 10:40:00,16.4, 3.8
2023/01/14 10:50:00,16.3, 3.9
2023/01/14 11:00:00,16.3, 4.2
2023/01/14 11:10:00,16.1, 4.3
2023/01/14 11:20:00,16.1, 4.0
2023/01/14 11:30:00,16.1, 4.7
2023/01/14 11:40:00,15.9, 5.0
2023/01/14 11:50:00,16.1, 4.8
2023/01/14 12:00:00,16.1, 4.7
2023/01/14 12:10:00,16.3, 5.0
2023/01/14 12:20:00,16.4, 4.7
2023/01/14 12:30:00,16.3, 4.3
2023/01/14 12:40:00,16.4, 5.0
2023/01/14 12:50:00,16.5, 4.5
2023/01/14 13:00:00,16.6, 4.7
2023/01/14 13:10:00,16.8, 5.0
2023/01/14 13:20:00,17.1, 5.1
2023/01/14 13:30:00,17.0, 4.4
2023/01/14 13:40:00,16.8, 4.9
2023/01/14 13:50:00,16.7, 5.0
2023/01/14 14:00:00,16.5, 4.9
2023/01/14 14:10:00,16.4, 4.6
2023/01/14 14:20:00,16.3, 4.8
2023/01/14 14:30:00,16.3, 5.0
2023/01/14 14:40:00,16.3, 4.8
2023/01/14 14:50:00,16.1, 4.7
2023/01/14 15:00:00,15.9, 4.5
2023/01/14 15:10:00,15.7, 4.6
2023/01/14 15:20:00,15.5, 4.3
2023/01/14 15:30:00,15.3, 3.9
2023/01/14 15:40:00,15.3, 3.9
2023/01/14 15:50:00,15.4, 4.3
2023/01/14 16:00:00,15.5, 3.9
2023/01/14 16:10:00,15.5, 3.7
2023/01/14 16:20:00,15.4, 3.6
2023/01/14 16:30:00,15.6, 3.5
2023/01/14 16:40:00,15.7, 3.5
2023/01/14 16:50:00,15.2, 3.5
2023/01/14 17:00:00,14.9, 3.2
2023/01/14 17:10:00,14.6, 3.2
2023/01/14 17:20:00,14.7, 3.4
2023/01/14 17:30:00,14.7, 3.3
2023/01/14 17:40:00,14.5, 3.2
2023/01/14 17:50:00,14.4, 3.3
2023/01/14 18:00:00,14.5, 3.4
2023/01/14 18:10:00,14.4, 3.3
2023/01/14 18:20:00,14.3, 3.3
2023/01/14 18:30:00,14.4, 3.2
2023/01/14 18:40:00,14.3, 3.6
2023/01/14 18:50:00,14.4, 3.7
2023/01/14 19:00:00,14.3, 4.0
2023/01/14 19:10:00,14.4, 3.5
2023/01/14 19:20:00,14.5, 3.5
2023/01/14 19:30:00,14.5, 3.0
2023/01/14 19:40:00,14.4, 2.9
2023/01/14 19:50:00,14.4, 2.8
2023/01/14 20:00:00,14.5, 2.9
2023/01/14 20:10:00,14.5, 2.9
2023/01/14 20:20:00,14.4, 3.0
2023/01/14 20:30:00,14.2, 3.0
2023/01/14 20:40:00,14.1, 2.8
2023/01/14 20:50:00,14.1, 2.6
2023/01/14 21:00:00,14.2, 2.9
2023/01/14 21:10:00,13.9, 2.5
2023/01/14 21:20:00,13.7, 3.0
2023/01/14 21:30:00,13.7, 2.9
2023/01/14 21:40:00,13.7, 3.0
2023/01/14 21:50:00,13.5, 3.0
2023/01/14 22:00:00,13.4, 3.2
2023/01/14 22:10:00,13.4, 3.2
2023/01/14 22:20:00,13.4, 3.1
2023/01/14 22:30:00,13.4, 3.1
2023/01/14 22:40:00,13.4, 2.6
2023/01/14 22:50:00,13.4, 3.0
2023/01/14 23:00:00,13.4, 2.8
2023/01/14 23:10:00,13.5, 2.9
2023/01/14 23:20:00,13.4, 2.8
2023/01/14 23:30:00,13.4, 2.6
2023/01/14 23:40:00,13.4, 3.1
2023/01/14 23:50:00,13.5, 2.6
